Regional Weather Roundup
Issued by NWS Sioux Falls, SD

Home | Current Version | Previous Version | Text Only | Print | Product List | Glossary On
Versions: 1 2 3 4 5 6 7 8 9 10 11 12 13 14 15 16 17 18 19 20 21 22 23 24 25 26 27 28 29 30 31 32 33 34 35 36 37 38 39 40 41 42 43 44 45 46 47 48 49 50
000
ASUS43 KFSD 221410
RWRFSD

WEATHER ROUNDUP FOR SE SOUTH DAKOTA/SW MINNESOTA/NW IOWA
NATIONAL WEATHER SERVICE SIOUX FALLS SD
800 AM CST WED FEB 22 2017

NOTE: "FAIR" INDICATES FEW OR NO CLOUDS BELOW 12,000 FEET WITH NO
SIGNIFICANT WEATHER AND OR OBSTRUCTIONS TO VISIBILITY.


SDZ038>040-050-052>070-221500-
SOUTHEAST SOUTH DAKOTA

CITY           SKY/WX    TMP DP  RH WIND       PRES   REMARKS
BROOKINGS      MOCLDY    43  38  82 SE7       29.56F
CHAMBERLAIN    PTCLDY    43  39  84 W9        29.67R
HURON          CLOUDY    42  39  89 CALM      29.62R
MADISON        FAIR      43  43 100 NW6       29.59F
MITCHELL       MOCLDY    46  39  76 SW8       29.60F
SIOUX FALLS    FAIR      45  38  76 W9        29.62R
WINNER         FAIR      49  38  65 W12       29.68S
YANKTON        FAIR      43  34  70 SW7       29.64S
$$

MNZ071-072-080-081-089-090-097-098-221500-
SOUTHWEST MINNESOTA

CITY           SKY/WX    TMP DP  RH WIND       PRES   REMARKS
FAIRMONT       FAIR      43  35  73 SW16      29.59S
JACKSON        FAIR      41  32  70 SW12      29.62R
LUVERNE        FAIR      32  30  93 S6        29.65R WCI  26
MARSHALL       FAIR      41  39  93 NW6       29.62R
MONTEVIDEO     FAIR      39  39 100 N10       29.63R
PIPESTONE      FAIR      45  34  65 NW8       29.61S
REDWOOD FALLS  MOCLDY    39  36  89 NW5       29.61R
TRACY          MOCLDY    44  40  88 NW6       29.61R
WINDOM         FAIR      41  34  75 SW10      29.61R
WORTHINGTON    FAIR      39  33  79 SW16      29.63R
$$

IAZ001>003-012>014-020>022-031-032-NEZ013-014-SDZ071-221500-
NORTHWEST IOWA

CITY           SKY/WX    TMP DP  RH WIND       PRES   REMARKS
CHEROKEE       FAIR      41  35  81 CALM      29.65R
DENISON        FAIR      45  36  70 CALM      29.62S
ESTHERVILLE    FAIR      41  35  79 SW12      29.60S
LE MARS        FAIR      34  32  93 CALM      29.65F
ORANGE CITY    FAIR      36  34  93 W5        29.65R
SHELDON        FAIR      37  37 100 SW9       29.63S
SIOUX CITY     FAIR      36  32  85 NW10      29.64R
SPENCER        FAIR      40  35  83 S5        29.62S
STORM LAKE     FAIR      45  36  70 SW13      29.61F
$$

ABBREVIATIONS USED IN REMARKS
   TC - TEMPERATURE IN CELSIUS
  WCI - WIND CHILL INDEX
   HX - HEAT INDEX
  VSB - VISIBILITY





USA.gov is the U.S. government's official web portal to all federal, state and local government web resources and services.